Talkeetna, AK

3:34 PM AKDT on June 28, 2017 (GMT -0800)
Talkeetna

Weather History for PATK - March, 2014

Change the Weather History Date:

Wednesday, March 19, 2014

  Actual Average Record
Temperature  
Mean Temperature 24 °F -  
Max Temperature 37 °F 34 °F 51 °F (2015)
Min Temperature 10 °F 12 °F -23 °F (1973)
Degree Days  
Heating Degree Days 42    
Moisture  
Dew Point 9 °F    
Average Humidity 48    
Maximum Humidity 84    
Minimum Humidity 18    
Precipitation  
Precipitation 0.00 in - - ()
Sea Level Pressure  
Sea Level Pressure 30.14 in    
Wind  
Wind Speed 4 mph (NNE)    
Max Wind Speed 14 mph    
Max Gust Speed 21 mph    
Visibility 10 miles    
Events      
Averages and records for this station are not official NWS values.
T = Trace of Precipitation, MM = Missing Value Source: NWS Daily Summary

Daily Weather History Graph

Daily Weather History Graph

Search for Another Location

Airport or City:

Trip Planner

Search our weather history database for the weather conditions in past years. The results will help you decide how hot, cold, wet, or windy it might be!

Date:

Astronomy

Mar. 19, 2014 Rise Set
Actual Time 8:04 AM AKDT 8:13 PM AKDT
Civil Twilight 7:19 AM AKDT 8:58 PM AKDT
Nautical Twilight 6:25 AM AKDT 9:52 PM AKDT
Astronomical Twilight 5:25 AM AKDT 10:53 PM AKDT
Moon No Moon Rise 8:38 AM AKDT (3/19)
Length of Visible Light 13h 39m
Length of Day
12h 09m
Waning Gibbous, 90% of the Moon is Illuminated
Mar 19
Waning Gibbous
Mar 23
Last Quarter
Mar 30
New
Apr 7
First Quarter
Apr 14
Full

Hourly Weather History & Observations

Time (AKDT) Temp. Windchill Dew Point Humidity Pressure Visibility Wind Dir Wind Speed Gust Speed Precip Events Conditions
12:53 AM 19.9 °F - 12.0 °F 71% 30.03 in 10.0 mi Calm Calm - N/A   Partly Cloudy
1:53 AM 21.9 °F - 12.9 °F 68% 30.04 in 10.0 mi Calm Calm - N/A   Partly Cloudy
2:53 AM 19.0 °F - 12.0 °F 74% 30.06 in 10.0 mi Calm Calm - N/A   Scattered Clouds
3:53 AM 18.0 °F - 10.9 °F 74% 30.07 in 10.0 mi Calm Calm - N/A   Scattered Clouds
4:53 AM 16.0 °F - 10.0 °F 77% 30.08 in 10.0 mi Calm Calm - N/A   Clear
5:53 AM 14.0 °F - 10.0 °F 84% 30.09 in 10.0 mi Calm Calm - N/A   Clear
6:53 AM 12.9 °F 6.9 °F 8.1 °F 81% 30.11 in 10.0 mi ENE 3.5 mph - N/A   Clear
7:53 AM 14.0 °F 5.1 °F 7.0 °F 74% 30.12 in 10.0 mi NE 5.8 mph - N/A   Clear
8:53 AM 21.0 °F 13.4 °F 9.0 °F 60% 30.12 in 10.0 mi North 5.8 mph - N/A   Clear
9:53 AM 24.1 °F 18.2 °F 9.0 °F 53% 30.12 in 10.0 mi NNE 4.6 mph - N/A   Clear
10:53 AM 28.9 °F 23.9 °F 9.0 °F 43% 30.13 in 10.0 mi NNE 4.6 mph - N/A   Clear
11:53 AM 34.0 °F 26.6 °F 8.1 °F 34% 30.14 in 10.0 mi NNE 9.2 mph - N/A   Clear
12:53 PM 35.1 °F 26.4 °F 8.1 °F 33% 30.15 in 10.0 mi NNE 12.7 mph 19.6 mph N/A   Clear
1:53 PM 36.0 °F 29.0 °F 9.0 °F 33% 30.15 in 10.0 mi NNE 9.2 mph - N/A   Clear
2:53 PM 37.0 °F 29.8 °F 8.1 °F 30% 30.16 in 10.0 mi North 10.4 mph - N/A   Clear
3:53 PM 37.0 °F 29.8 °F 9.0 °F 31% 30.16 in 10.0 mi NNE 10.4 mph 20.7 mph N/A   Clear
4:53 PM 37.0 °F 28.5 °F 9.0 °F 31% 30.17 in 10.0 mi NNE 13.8 mph 18.4 mph N/A   Clear
5:53 PM 37.9 °F 32.1 °F 9.0 °F 30% 30.17 in 10.0 mi NNE 8.1 mph - N/A   Clear
6:53 PM 36.0 °F 29.0 °F 8.1 °F 31% 30.18 in 10.0 mi North 9.2 mph - N/A   Clear
7:53 PM 33.1 °F 26.1 °F 9.0 °F 37% 30.19 in 10.0 mi North 8.1 mph - N/A   Clear
8:53 PM 30.9 °F 25.2 °F 8.1 °F 38% 30.21 in 10.0 mi Variable 5.8 mph - N/A   Clear
9:53 PM 30.0 °F 23.2 °F 7.0 °F 38% 30.22 in 10.0 mi North 6.9 mph - N/A   Clear
10:53 PM 28.9 °F 22.8 °F 7.0 °F 40% 30.24 in 10.0 mi North 5.8 mph - N/A   Clear
11:53 PM 28.0 °F 21.7 °F 6.1 °F 39% 30.25 in 10.0 mi North 5.8 mph - N/A   Clear